This demonstration page uses our WeatherBlox Daily Observations layout. Learn more.

39.08367, -84.50855

Hourly Observations for July 8, 2019

Temp ( °F °C ) Dew Point ( °F °C ) Humidity (%) Winds ( mph kmh ) Pressure ( in mb ) Visibility ( mi km ) Precip ( " mm )
12:53 am 00:53 Clear 73 22.8 68 20 84 84 NE 7 11 29.94 1014 10 16.09344 0 0
1:53 am 01:53 Clear 72 22.2 67 19.4 84 84 NNE 6 9 29.91 1013 10 16.09344 0 0
2:53 am 02:53 Clear 70 21.1 66 18.9 87 87 NNE 3 6 29.91 1013 10 16.09344 0 0
3:53 am 03:53 Clear 69 20.6 66 18.9 90 90 Calm 29.91 1013 10 16.09344 0 0
4:53 am 04:53 Clear 69 20.6 65 18.3 87 87 NE 5 7 29.91 1013 10 16.09344 0 0
5:53 am 05:53 Clear 69 20.6 64 17.8 84 84 NE 7 11 29.94 1014 10 16.09344 0 0
6:53 am 06:53 Sunny 69 20.6 63 17.2 81 81 NNE 5 7 29.94 1014 10 16.09344 0 0
7:53 am 07:53 Sunny 71 21.7 64 17.8 79 79 NE 5 7 29.97 1015 10 16.09344 0 0
8:53 am 08:53 Sunny 73 22.8 64 17.8 74 74 NE 9 15 29.97 1015 10 16.09344 0 0
9:53 am 09:53 Mostly Sunny 76 24.4 65 18.3 69 69 NE 6 9 29.97 1015 10 16.09344 0 0
10:53 am 10:53 Partly Cloudy 79 26.1 66 18.9 65 65 VRB 5 7 29.97 1015 10 16.09344 0 0
11:53 am 11:53 Partly Cloudy 81 27.2 68 20 65 65 NNE 9 15 29.97 1015 10 16.09344 0 0
12:53 pm 12:53 Partly Cloudy 83 28.3 69 20.6 63 63 ENE 13 20 29.97 1015 10 16.09344 0 0
1:53 pm 13:53 Mostly Cloudy 83 28.3 68 20 61 61 VRB 7 11 29.97 1015 10 16.09344 0 0
2:53 pm 14:53 Mostly Cloudy 85 29.4 68 20 57 57 ENE 12 19 29.94 1014 10 16.09344 0 0
3:53 pm 15:53 Partly Cloudy 84 28.9 66 18.9 55 55 NE 9 15 29.94 1014 10 16.09344 0 0
4:53 pm 16:53 Mostly Sunny 87 30.6 68 20 53 53 NE 7 11 29.94 1014 10 16.09344 0 0
5:53 pm 17:53 Partly Cloudy 86 30 67 19.4 53 53 NE 8 13 29.94 1014 10 16.09344 0 0
6:53 pm 18:53 Mostly Sunny 84 28.9 66 18.9 55 55 NE 7 11 29.94 1014 10 16.09344 0 0
7:53 pm 19:53 Mostly Sunny 83 28.3 67 19.4 59 59 ENE 6 9 29.94 1014 10 16.09344 0 0
8:53 pm 20:53 Mostly Sunny 79 26.1 67 19.4 67 67 ENE 5 7 29.94 1014 10 16.09344 0 0
9:53 pm 21:53 Clear 74 23.3 68 20 82 82 Calm 29.94 1014 10 16.09344 0 0
10:53 pm 22:53 Partly Cloudy 72 22.2 68 20 87 87 Calm 29.97 1015 10 16.09344 0 0
11:53 pm 23:53 Partly Cloudy 72 22.2 68 20 87 87 Calm 29.97 1015 10 16.09344 0 0

Powered by AerisWeather